Year,Month,Day,Hour,Minute,Value (Times are PST for temperature in C)
2015,02,08,00,00,9.30
2015,02,08,00,01,9.30
2015,02,08,00,02,9.30
2015,02,08,00,03,9.30
2015,02,08,00,04,9.30
2015,02,08,00,05,9.30
2015,02,08,00,06,9.30
2015,02,08,00,07,9.30
2015,02,08,00,08,9.30
2015,02,08,00,09,9.30
2015,02,08,00,10,9.30
2015,02,08,00,11,9.30
2015,02,08,00,12,9.30
2015,02,08,00,13,9.30
2015,02,08,00,14,9.30
2015,02,08,00,15,9.30
2015,02,08,00,16,9.30
2015,02,08,00,17,9.30
2015,02,08,00,18,9.30
2015,02,08,00,19,9.30
2015,02,08,00,20,9.30
2015,02,08,00,21,9.40
2015,02,08,00,22,9.40
2015,02,08,00,23,9.40
2015,02,08,00,24,9.40
2015,02,08,00,25,9.40
2015,02,08,00,26,9.40
2015,02,08,00,27,9.40
2015,02,08,00,28,9.30
2015,02,08,00,29,9.30
2015,02,08,00,30,9.30
2015,02,08,00,31,9.30
2015,02,08,00,32,9.30
2015,02,08,00,33,9.30
2015,02,08,00,34,9.30
2015,02,08,00,35,9.30
2015,02,08,00,36,9.30
2015,02,08,00,37,9.30
2015,02,08,00,38,9.30
2015,02,08,00,39,9.30
2015,02,08,00,40,9.30
2015,02,08,00,41,9.30
2015,02,08,00,42,9.30
2015,02,08,00,43,9.30
2015,02,08,00,44,9.30
2015,02,08,00,45,9.30
2015,02,08,00,46,9.30
2015,02,08,00,47,9.30
2015,02,08,00,48,9.30
2015,02,08,00,49,9.30
2015,02,08,00,50,9.30
2015,02,08,00,51,9.30
2015,02,08,00,52,9.30
2015,02,08,00,53,9.20
2015,02,08,00,54,9.20
2015,02,08,00,55,9.20
2015,02,08,00,56,9.20
2015,02,08,00,57,9.20
2015,02,08,00,58,9.20
2015,02,08,00,59,9.20
2015,02,08,01,00,9.20
2015,02,08,01,01,9.20
2015,02,08,01,02,9.20
2015,02,08,01,03,9.20
2015,02,08,01,04,9.20
2015,02,08,01,05,9.20
2015,02,08,01,06,9.10
2015,02,08,01,07,9.10
2015,02,08,01,08,9.10
2015,02,08,01,09,9.10
2015,02,08,01,10,9.10
2015,02,08,01,11,9.10
2015,02,08,01,12,9.10
2015,02,08,01,13,9.10
2015,02,08,01,14,9.10
2015,02,08,01,15,9.10
2015,02,08,01,16,9.10
2015,02,08,01,17,9.10
2015,02,08,01,18,9.10
2015,02,08,01,19,9.10
2015,02,08,01,20,9.10
2015,02,08,01,21,9.10
2015,02,08,01,22,9.10
2015,02,08,01,23,9.10
2015,02,08,01,24,9.10
2015,02,08,01,25,9.10
2015,02,08,01,26,9.10
2015,02,08,01,27,9.10
2015,02,08,01,28,9.10
2015,02,08,01,29,9.10
2015,02,08,01,30,9.20
2015,02,08,01,31,9.10
2015,02,08,01,32,9.20
2015,02,08,01,33,9.20
2015,02,08,01,34,9.20
2015,02,08,01,35,9.20
2015,02,08,01,36,9.20
2015,02,08,01,37,9.20
2015,02,08,01,38,9.20
2015,02,08,01,39,9.20
2015,02,08,01,40,9.20
2015,02,08,01,41,9.20
2015,02,08,01,42,9.20
2015,02,08,01,43,9.20
2015,02,08,01,44,9.20
2015,02,08,01,45,9.20
2015,02,08,01,46,9.20
2015,02,08,01,47,9.20
2015,02,08,01,48,9.20
2015,02,08,01,49,9.20
2015,02,08,01,50,9.20
2015,02,08,01,51,9.20
2015,02,08,01,52,9.20
2015,02,08,01,53,9.20
2015,02,08,01,54,9.20
2015,02,08,01,55,9.20
2015,02,08,01,56,9.20
2015,02,08,01,57,9.20
2015,02,08,01,58,9.20
2015,02,08,01,59,9.20
2015,02,08,02,00,9.20
2015,02,08,02,01,9.20
2015,02,08,02,02,9.20
2015,02,08,02,03,9.20
2015,02,08,02,04,9.10
2015,02,08,02,05,9.10
2015,02,08,02,06,9.10
2015,02,08,02,07,9.10
2015,02,08,02,08,9.10
2015,02,08,02,09,9.10
2015,02,08,02,10,9.10
2015,02,08,02,11,9.10
2015,02,08,02,12,9.10
2015,02,08,02,13,9.00
2015,02,08,02,14,9.00
2015,02,08,02,15,9.00
2015,02,08,02,16,9.00
2015,02,08,02,17,8.90
2015,02,08,02,18,8.90
2015,02,08,02,19,8.90
2015,02,08,02,20,8.90
2015,02,08,02,21,8.90
2015,02,08,02,22,8.90
2015,02,08,02,23,8.90
2015,02,08,02,24,8.90
2015,02,08,02,25,8.90
2015,02,08,02,26,8.90
2015,02,08,02,27,8.90
2015,02,08,02,28,8.90
2015,02,08,02,29,8.90
2015,02,08,02,30,8.90
2015,02,08,02,31,8.90
2015,02,08,02,32,8.80
2015,02,08,02,33,8.80
2015,02,08,02,34,8.80
2015,02,08,02,35,8.80
2015,02,08,02,36,8.80
2015,02,08,02,37,8.80
2015,02,08,02,38,8.80
2015,02,08,02,39,8.80
2015,02,08,02,40,8.80
2015,02,08,02,41,8.80
2015,02,08,02,42,8.80
2015,02,08,02,43,8.80
2015,02,08,02,44,8.80
2015,02,08,02,45,8.80
2015,02,08,02,46,8.80
2015,02,08,02,47,8.80
2015,02,08,02,48,8.80
2015,02,08,02,49,8.90
2015,02,08,02,50,8.90
2015,02,08,02,51,8.90
2015,02,08,02,52,8.90
2015,02,08,02,53,8.90
2015,02,08,02,54,8.90
2015,02,08,02,55,8.90
2015,02,08,02,56,8.90
2015,02,08,02,57,8.90
2015,02,08,02,58,8.90
2015,02,08,02,59,8.90
2015,02,08,03,00,8.90
2015,02,08,03,01,8.90
2015,02,08,03,02,8.90
2015,02,08,03,03,8.90
2015,02,08,03,04,8.80
2015,02,08,03,05,8.80
2015,02,08,03,06,8.80
2015,02,08,03,07,8.80
2015,02,08,03,08,8.80
2015,02,08,03,09,8.80
2015,02,08,03,10,8.80
2015,02,08,03,11,8.80
2015,02,08,03,12,8.80
2015,02,08,03,13,8.80
2015,02,08,03,14,8.80
2015,02,08,03,15,8.80
2015,02,08,03,16,8.80
2015,02,08,03,17,8.80
2015,02,08,03,18,8.80
2015,02,08,03,19,8.80
2015,02,08,03,20,8.80
2015,02,08,03,21,8.80
2015,02,08,03,22,8.80
2015,02,08,03,23,8.80
2015,02,08,03,24,8.80
2015,02,08,03,25,8.80
2015,02,08,03,26,8.70
2015,02,08,03,27,8.70
2015,02,08,03,28,8.70
2015,02,08,03,29,8.70
2015,02,08,03,30,8.70
2015,02,08,03,31,8.70
2015,02,08,03,32,8.70
2015,02,08,03,33,8.60
2015,02,08,03,34,8.60
2015,02,08,03,35,8.60
2015,02,08,03,36,8.50
2015,02,08,03,37,8.50
2015,02,08,03,38,8.50
2015,02,08,03,39,8.40
2015,02,08,03,40,8.40
2015,02,08,03,41,8.40
2015,02,08,03,42,8.40
2015,02,08,03,43,8.50
2015,02,08,03,44,8.50
2015,02,08,03,45,8.50
2015,02,08,03,46,8.50
2015,02,08,03,47,8.60
2015,02,08,03,48,8.50
2015,02,08,03,49,8.50
2015,02,08,03,50,8.50
2015,02,08,03,51,8.50
2015,02,08,03,52,8.50
2015,02,08,03,53,8.50
2015,02,08,03,54,8.50
2015,02,08,03,55,8.50
2015,02,08,03,56,8.50
2015,02,08,03,57,8.50
2015,02,08,03,58,8.40
2015,02,08,03,59,8.40
2015,02,08,04,00,8.30
2015,02,08,04,01,8.30
2015,02,08,04,02,8.30
2015,02,08,04,03,8.30
2015,02,08,04,04,8.30
2015,02,08,04,05,8.20
2015,02,08,04,06,8.20
2015,02,08,04,07,8.20
2015,02,08,04,08,8.20
2015,02,08,04,09,8.20
2015,02,08,04,10,8.20
2015,02,08,04,11,8.10
2015,02,08,04,12,8.10
2015,02,08,04,13,8.10
2015,02,08,04,14,8.10
2015,02,08,04,15,8.10
2015,02,08,04,16,8.10
2015,02,08,04,17,8.10
2015,02,08,04,18,8.10
2015,02,08,04,19,8.10
2015,02,08,04,20,8.10
2015,02,08,04,21,8.10
2015,02,08,04,22,8.10
2015,02,08,04,23,8.10
2015,02,08,04,24,8.00
2015,02,08,04,25,8.00
2015,02,08,04,26,8.00
2015,02,08,04,27,8.00
2015,02,08,04,28,8.00
2015,02,08,04,29,8.00
2015,02,08,04,30,8.00
2015,02,08,04,31,8.00
2015,02,08,04,32,7.90
2015,02,08,04,33,7.90
2015,02,08,04,34,7.90
2015,02,08,04,35,7.90
2015,02,08,04,36,7.90
2015,02,08,04,37,8.00
2015,02,08,04,38,8.00
2015,02,08,04,39,8.00
2015,02,08,04,40,8.00
2015,02,08,04,41,8.10
2015,02,08,04,42,8.10
2015,02,08,04,43,8.10
2015,02,08,04,44,8.10
2015,02,08,04,45,8.10
2015,02,08,04,46,8.10
2015,02,08,04,47,8.10
2015,02,08,04,48,8.10
2015,02,08,04,49,8.10
2015,02,08,04,50,8.10
2015,02,08,04,51,8.20
2015,02,08,04,52,8.20
2015,02,08,04,53,8.20
2015,02,08,04,54,8.20
2015,02,08,04,55,8.20
2015,02,08,04,56,8.20
2015,02,08,04,57,8.20
2015,02,08,04,58,8.20
2015,02,08,04,59,8.20
2015,02,08,05,00,8.20
2015,02,08,05,01,8.20
2015,02,08,05,02,8.20
2015,02,08,05,03,8.20
2015,02,08,05,04,8.20
2015,02,08,05,05,8.20
2015,02,08,05,06,8.20
2015,02,08,05,07,8.20
2015,02,08,05,08,8.20
2015,02,08,05,09,8.20
2015,02,08,05,10,8.20
2015,02,08,05,11,8.20
2015,02,08,05,12,8.20
2015,02,08,05,13,8.20
2015,02,08,05,14,8.20
2015,02,08,05,15,8.20
2015,02,08,05,16,8.20
2015,02,08,05,17,8.20
2015,02,08,05,18,8.20
2015,02,08,05,19,8.20
2015,02,08,05,20,8.20
2015,02,08,05,21,8.20
2015,02,08,05,22,8.20
2015,02,08,05,23,8.20
2015,02,08,05,24,8.10
2015,02,08,05,25,8.10
2015,02,08,05,26,8.10
2015,02,08,05,27,8.10
2015,02,08,05,28,8.10
2015,02,08,05,29,8.10
2015,02,08,05,30,8.10
2015,02,08,05,31,8.10
2015,02,08,05,32,8.10
2015,02,08,05,33,8.10
2015,02,08,05,34,8.10
2015,02,08,05,35,8.10
2015,02,08,05,36,8.10
2015,02,08,05,37,8.10
2015,02,08,05,38,8.10
2015,02,08,05,39,8.10
2015,02,08,05,40,8.10
2015,02,08,05,41,8.10
2015,02,08,05,42,8.10
2015,02,08,05,43,8.10
2015,02,08,05,44,8.10
2015,02,08,05,45,8.10
2015,02,08,05,46,8.10
2015,02,08,05,47,8.10
2015,02,08,05,48,8.10
2015,02,08,05,49,8.10
2015,02,08,05,50,8.10
2015,02,08,05,51,8.10
2015,02,08,05,52,8.10
2015,02,08,05,53,8.10
2015,02,08,05,54,8.10
2015,02,08,05,55,8.10
2015,02,08,05,56,8.10
2015,02,08,05,57,8.10
2015,02,08,05,58,8.10
2015,02,08,05,59,8.10
2015,02,08,06,00,8.10
2015,02,08,06,01,8.10
2015,02,08,06,02,8.10
2015,02,08,06,03,8.10
2015,02,08,06,04,8.10
2015,02,08,06,05,8.10
2015,02,08,06,06,8.10
2015,02,08,06,07,8.10
2015,02,08,06,08,8.10
2015,02,08,06,09,8.10
2015,02,08,06,10,8.10
2015,02,08,06,11,8.10
2015,02,08,06,12,8.10
2015,02,08,06,13,8.10
2015,02,08,06,14,8.10
2015,02,08,06,15,8.10
2015,02,08,06,16,8.10
2015,02,08,06,17,8.10
2015,02,08,06,18,8.10
2015,02,08,06,19,8.10
2015,02,08,06,20,8.10
2015,02,08,06,21,8.10
2015,02,08,06,22,8.10
2015,02,08,06,23,8.10
2015,02,08,06,24,8.10
2015,02,08,06,25,8.10
2015,02,08,06,26,8.10
2015,02,08,06,27,8.10
2015,02,08,06,28,8.00
2015,02,08,06,29,8.10
2015,02,08,06,30,8.10
2015,02,08,06,31,8.10
2015,02,08,06,32,8.10
2015,02,08,06,33,8.10
2015,02,08,06,34,8.10
2015,02,08,06,35,8.10
2015,02,08,06,36,8.10
2015,02,08,06,37,8.10
2015,02,08,06,38,8.10
2015,02,08,06,39,8.10
2015,02,08,06,40,8.10
2015,02,08,06,41,8.10
2015,02,08,06,42,8.10
2015,02,08,06,43,8.10
2015,02,08,06,44,8.10
2015,02,08,06,45,8.10
2015,02,08,06,46,8.10
2015,02,08,06,47,8.10
2015,02,08,06,48,8.10
2015,02,08,06,49,8.10
2015,02,08,06,50,8.10
2015,02,08,06,51,8.10
2015,02,08,06,52,8.10
2015,02,08,06,53,8.20
2015,02,08,06,54,8.20
2015,02,08,06,55,8.20
2015,02,08,06,56,8.20
2015,02,08,06,57,8.20
2015,02,08,06,58,8.20
2015,02,08,06,59,8.30
2015,02,08,07,00,8.30
2015,02,08,07,01,8.30
2015,02,08,07,02,8.30
2015,02,08,07,03,8.30
2015,02,08,07,04,8.30
2015,02,08,07,05,8.30
2015,02,08,07,06,8.30
2015,02,08,07,07,8.30
2015,02,08,07,08,8.30
2015,02,08,07,09,8.30
2015,02,08,07,10,8.30
2015,02,08,07,11,8.20
2015,02,08,07,12,8.20
2015,02,08,07,13,8.20
2015,02,08,07,14,8.20
2015,02,08,07,15,8.20
2015,02,08,07,16,8.20
2015,02,08,07,17,8.30
2015,02,08,07,18,8.30
2015,02,08,07,19,8.30
2015,02,08,07,20,8.30
2015,02,08,07,21,8.30
2015,02,08,07,22,8.30
2015,02,08,07,23,8.30
2015,02,08,07,24,8.30
2015,02,08,07,25,8.30
2015,02,08,07,26,8.30
2015,02,08,07,27,8.30
2015,02,08,07,28,8.30
2015,02,08,07,29,8.30
2015,02,08,07,30,8.30
2015,02,08,07,31,8.30
2015,02,08,07,32,8.30
2015,02,08,07,33,8.30
2015,02,08,07,34,8.30
2015,02,08,07,35,8.30
2015,02,08,07,36,8.30
2015,02,08,07,37,8.40
2015,02,08,07,38,8.40
2015,02,08,07,39,8.40
2015,02,08,07,40,8.40
2015,02,08,07,41,8.40
2015,02,08,07,42,8.40
2015,02,08,07,43,8.40
2015,02,08,07,44,8.40
2015,02,08,07,45,8.40
2015,02,08,07,46,8.40
2015,02,08,07,47,8.40
2015,02,08,07,48,8.50
2015,02,08,07,49,8.50
2015,02,08,07,50,8.50
2015,02,08,07,51,8.50
2015,02,08,07,52,8.50
2015,02,08,07,53,8.50
2015,02,08,07,54,8.50
2015,02,08,07,55,8.50
2015,02,08,07,56,8.50
2015,02,08,07,57,8.50
2015,02,08,07,58,8.60
2015,02,08,07,59,8.60
2015,02,08,08,00,8.60
2015,02,08,08,01,8.60
2015,02,08,08,02,8.60
2015,02,08,08,03,8.60
2015,02,08,08,04,8.60
2015,02,08,08,05,8.60
2015,02,08,08,06,8.60
2015,02,08,08,07,8.60
2015,02,08,08,08,8.60
2015,02,08,08,09,8.60
2015,02,08,08,10,8.60
2015,02,08,08,11,8.60
2015,02,08,08,12,8.60
2015,02,08,08,13,8.60
2015,02,08,08,14,8.60
2015,02,08,08,15,8.70
2015,02,08,08,16,8.70
2015,02,08,08,17,8.70
2015,02,08,08,18,8.70
2015,02,08,08,19,8.70
2015,02,08,08,20,8.70
2015,02,08,08,21,8.70
2015,02,08,08,22,8.70
2015,02,08,08,23,8.70
2015,02,08,08,24,8.70
2015,02,08,08,25,8.70
2015,02,08,08,26,8.70
2015,02,08,08,27,8.70
2015,02,08,08,28,8.70
2015,02,08,08,29,8.70
2015,02,08,08,30,8.70
2015,02,08,08,31,8.70
2015,02,08,08,32,8.70
2015,02,08,08,33,8.70
2015,02,08,08,34,8.70
2015,02,08,08,35,8.70
2015,02,08,08,36,8.70
2015,02,08,08,37,8.70
2015,02,08,08,38,8.80
2015,02,08,08,39,8.80
2015,02,08,08,40,8.80
2015,02,08,08,41,8.80
2015,02,08,08,42,8.80
2015,02,08,08,43,8.80
2015,02,08,08,44,8.80
2015,02,08,08,45,8.80
2015,02,08,08,46,8.80
2015,02,08,08,47,8.80
2015,02,08,08,48,8.80
2015,02,08,08,49,8.80
2015,02,08,08,50,8.80
2015,02,08,08,51,8.80
2015,02,08,08,52,8.80
2015,02,08,08,53,8.80
2015,02,08,08,54,8.80
2015,02,08,08,55,8.80
2015,02,08,08,56,8.80
2015,02,08,08,57,8.80
2015,02,08,08,58,8.80
2015,02,08,08,59,8.80
2015,02,08,09,00,8.80
2015,02,08,09,01,8.80
2015,02,08,09,02,8.80
2015,02,08,09,03,8.80
2015,02,08,09,04,8.80
2015,02,08,09,05,8.80
2015,02,08,09,06,8.80
2015,02,08,09,07,8.80
2015,02,08,09,08,8.80
2015,02,08,09,09,8.80
2015,02,08,09,10,8.80
2015,02,08,09,11,8.80
2015,02,08,09,12,8.80
2015,02,08,09,13,8.90
2015,02,08,09,14,8.90
2015,02,08,09,15,8.90
2015,02,08,09,16,8.90
2015,02,08,09,17,8.90
2015,02,08,09,18,8.90
2015,02,08,09,19,8.90
2015,02,08,09,20,8.90
2015,02,08,09,21,8.90
2015,02,08,09,22,8.90
2015,02,08,09,23,8.90
2015,02,08,09,24,8.90
2015,02,08,09,25,8.90
2015,02,08,09,26,8.90
2015,02,08,09,27,8.90
2015,02,08,09,28,8.90
2015,02,08,09,29,8.90
2015,02,08,09,30,8.90
2015,02,08,09,31,8.90
2015,02,08,09,32,8.90
2015,02,08,09,33,8.90
2015,02,08,09,34,8.90
2015,02,08,09,35,8.90
2015,02,08,09,36,8.90
2015,02,08,09,37,8.90
2015,02,08,09,38,8.90
2015,02,08,09,39,8.90
2015,02,08,09,40,8.90
2015,02,08,09,41,8.90
2015,02,08,09,42,8.90
2015,02,08,09,43,8.90
2015,02,08,09,44,8.90
2015,02,08,09,45,8.90
2015,02,08,09,46,8.90
2015,02,08,09,47,8.90
2015,02,08,09,48,8.90
2015,02,08,09,49,8.90
2015,02,08,09,50,9.00
2015,02,08,09,51,9.00
2015,02,08,09,52,9.00
2015,02,08,09,53,9.00
2015,02,08,09,54,9.00
2015,02,08,09,55,9.00
2015,02,08,09,56,9.10
2015,02,08,09,57,9.10
2015,02,08,09,58,9.10
2015,02,08,09,59,9.10
2015,02,08,10,00,9.10
2015,02,08,10,01,9.10
2015,02,08,10,02,9.20
2015,02,08,10,03,9.20
2015,02,08,10,04,9.20
2015,02,08,10,05,9.20
2015,02,08,10,06,9.30
2015,02,08,10,07,9.30
2015,02,08,10,08,9.30
2015,02,08,10,09,9.30
2015,02,08,10,10,9.30
2015,02,08,10,11,9.40
2015,02,08,10,12,9.40
2015,02,08,10,13,9.40
2015,02,08,10,14,9.40
2015,02,08,10,15,9.50
2015,02,08,10,16,9.50
2015,02,08,10,17,9.60
2015,02,08,10,18,9.60
2015,02,08,10,19,9.60
2015,02,08,10,20,9.60
2015,02,08,10,21,9.60
2015,02,08,10,22,9.60
2015,02,08,10,23,9.60
2015,02,08,10,24,9.70
2015,02,08,10,25,9.70
2015,02,08,10,26,9.70
2015,02,08,10,27,9.70
2015,02,08,10,28,9.70
2015,02,08,10,29,9.70
2015,02,08,10,30,9.70
2015,02,08,10,31,9.80
2015,02,08,10,32,9.80
2015,02,08,10,33,9.90
2015,02,08,10,34,10.00
2015,02,08,10,35,10.10
2015,02,08,10,36,10.10
2015,02,08,10,37,10.20
2015,02,08,10,38,10.30
2015,02,08,10,39,10.30
2015,02,08,10,40,10.30
2015,02,08,10,41,10.30
2015,02,08,10,42,10.20
2015,02,08,10,43,10.20
2015,02,08,10,44,10.20
2015,02,08,10,45,10.20
2015,02,08,10,46,10.20
2015,02,08,10,47,10.20
2015,02,08,10,48,10.20
2015,02,08,10,49,10.20
2015,02,08,10,50,10.20
2015,02,08,10,51,10.30
2015,02,08,10,52,10.30
2015,02,08,10,53,10.30
2015,02,08,10,54,10.40
2015,02,08,10,55,10.40
2015,02,08,10,56,10.50
2015,02,08,10,57,10.50
2015,02,08,10,58,10.60
2015,02,08,10,59,10.60
2015,02,08,11,00,10.60
2015,02,08,11,01,10.50
2015,02,08,11,02,10.50
2015,02,08,11,03,10.50
2015,02,08,11,04,10.50
2015,02,08,11,05,10.50
2015,02,08,11,06,10.50
2015,02,08,11,07,10.60
2015,02,08,11,08,10.60
2015,02,08,11,09,10.60
2015,02,08,11,10,10.70
2015,02,08,11,11,10.70
2015,02,08,11,12,10.70
2015,02,08,11,13,10.70
2015,02,08,11,14,10.70
2015,02,08,11,15,10.70
2015,02,08,11,16,10.70
2015,02,08,11,17,10.70
2015,02,08,11,18,10.70
2015,02,08,11,19,10.70
2015,02,08,11,20,10.70
2015,02,08,11,21,10.70
2015,02,08,11,22,10.60
2015,02,08,11,23,10.60
2015,02,08,11,24,10.60
2015,02,08,11,25,10.70
2015,02,08,11,26,10.70
2015,02,08,11,27,10.70
2015,02,08,11,28,10.70
2015,02,08,11,29,10.70
2015,02,08,11,30,10.80
2015,02,08,11,31,10.80
2015,02,08,11,32,10.80
2015,02,08,11,33,10.80
2015,02,08,11,34,10.90
2015,02,08,11,35,10.90
2015,02,08,11,36,10.90
2015,02,08,11,37,10.90
2015,02,08,11,38,10.90
2015,02,08,11,39,11.00
2015,02,08,11,40,11.00
2015,02,08,11,41,11.00
2015,02,08,11,42,11.00
2015,02,08,11,43,11.00
2015,02,08,11,44,11.00
2015,02,08,11,45,11.00
2015,02,08,11,46,11.00
2015,02,08,11,47,11.00
2015,02,08,11,48,11.00
2015,02,08,11,49,11.00
2015,02,08,11,50,11.00
2015,02,08,11,51,11.00
2015,02,08,11,52,11.00
2015,02,08,11,53,11.10
2015,02,08,11,54,11.10
2015,02,08,11,55,11.00
2015,02,08,11,56,11.00
2015,02,08,11,57,10.90
2015,02,08,11,58,10.90
2015,02,08,11,59,10.90
2015,02,08,12,00,10.90
2015,02,08,12,01,10.90
2015,02,08,12,02,10.90
2015,02,08,12,03,10.90
2015,02,08,12,04,10.90
2015,02,08,12,05,10.90
2015,02,08,12,06,10.90
2015,02,08,12,07,10.90
2015,02,08,12,08,10.90
2015,02,08,12,09,10.90
2015,02,08,12,10,10.90
2015,02,08,12,11,10.90
2015,02,08,12,12,10.90
2015,02,08,12,13,10.90
2015,02,08,12,14,11.00
2015,02,08,12,15,11.00
2015,02,08,12,16,11.00
2015,02,08,12,17,11.00
2015,02,08,12,18,11.00
2015,02,08,12,19,11.00
2015,02,08,12,20,11.00
2015,02,08,12,21,11.00
2015,02,08,12,22,11.00
2015,02,08,12,23,11.00
2015,02,08,12,24,11.00
2015,02,08,12,25,10.90
2015,02,08,12,26,10.90
2015,02,08,12,27,10.90
2015,02,08,12,28,10.90
2015,02,08,12,29,10.90
2015,02,08,12,30,10.90
2015,02,08,12,31,10.90
2015,02,08,12,32,10.90
2015,02,08,12,33,11.00
2015,02,08,12,34,11.00
2015,02,08,12,35,11.00
2015,02,08,12,36,11.00
2015,02,08,12,37,11.10
2015,02,08,12,38,11.10
2015,02,08,12,39,11.10
2015,02,08,12,40,11.20
2015,02,08,12,41,11.20
2015,02,08,12,42,11.30
2015,02,08,12,43,11.30
2015,02,08,12,44,11.30
2015,02,08,12,45,11.40
2015,02,08,12,46,11.50
2015,02,08,12,47,11.50
2015,02,08,12,48,11.60
2015,02,08,12,49,11.70
2015,02,08,12,50,11.80
2015,02,08,12,51,11.80
2015,02,08,12,52,11.90
2015,02,08,12,53,11.90
2015,02,08,12,54,12.00
2015,02,08,12,55,12.00
2015,02,08,12,56,12.00
2015,02,08,12,57,12.00
2015,02,08,12,58,12.00
2015,02,08,12,59,12.00
2015,02,08,13,00,12.00
2015,02,08,13,01,11.90
2015,02,08,13,02,11.90
2015,02,08,13,03,11.90
2015,02,08,13,04,11.90
2015,02,08,13,05,11.90
2015,02,08,13,06,11.90
2015,02,08,13,07,11.90
2015,02,08,13,08,11.90
2015,02,08,13,09,12.00
2015,02,08,13,10,12.00
2015,02,08,13,11,12.00
2015,02,08,13,12,12.10
2015,02,08,13,13,12.10
2015,02,08,13,14,12.10
2015,02,08,13,15,12.10
2015,02,08,13,16,12.10
2015,02,08,13,17,12.10
2015,02,08,13,18,12.10
2015,02,08,13,19,12.10
2015,02,08,13,20,12.10
2015,02,08,13,21,12.10
2015,02,08,13,22,12.10
2015,02,08,13,23,12.10
2015,02,08,13,24,12.10
2015,02,08,13,25,12.10
2015,02,08,13,26,12.10
2015,02,08,13,27,12.10
2015,02,08,13,28,12.10
2015,02,08,13,29,12.10
2015,02,08,13,30,12.10
2015,02,08,13,31,12.10
2015,02,08,13,32,12.10
2015,02,08,13,33,12.10
2015,02,08,13,34,12.10
2015,02,08,13,35,12.10
2015,02,08,13,36,12.10
2015,02,08,13,37,12.20
2015,02,08,13,38,12.20
2015,02,08,13,39,12.20
2015,02,08,13,40,12.20
2015,02,08,13,41,12.20
2015,02,08,13,42,12.20
2015,02,08,13,43,12.20
2015,02,08,13,44,12.20
2015,02,08,13,45,12.20
2015,02,08,13,46,12.20
2015,02,08,13,47,12.20
2015,02,08,13,48,12.20
2015,02,08,13,49,12.20
2015,02,08,13,50,12.20
2015,02,08,13,51,12.10
2015,02,08,13,52,12.10
2015,02,08,13,53,12.10
2015,02,08,13,54,12.00
2015,02,08,13,55,12.00
2015,02,08,13,56,12.00
2015,02,08,13,57,11.90
2015,02,08,13,58,11.90
2015,02,08,13,59,11.90
2015,02,08,14,00,11.90
2015,02,08,14,01,11.90
2015,02,08,14,02,11.90
2015,02,08,14,03,11.90
2015,02,08,14,04,11.90
2015,02,08,14,05,11.90
2015,02,08,14,06,11.90
2015,02,08,14,07,11.90
2015,02,08,14,08,11.90
2015,02,08,14,09,11.90
2015,02,08,14,10,11.90
2015,02,08,14,11,11.90
2015,02,08,14,12,11.80
2015,02,08,14,13,11.80
2015,02,08,14,14,11.80
2015,02,08,14,15,11.80
2015,02,08,14,16,11.80
2015,02,08,14,17,11.80
2015,02,08,14,18,11.80
2015,02,08,14,19,11.80
2015,02,08,14,20,11.80
2015,02,08,14,21,11.80
2015,02,08,14,22,11.90
2015,02,08,14,23,11.90
2015,02,08,14,24,11.90
2015,02,08,14,25,11.90
2015,02,08,14,26,11.90
2015,02,08,14,27,11.90
2015,02,08,14,28,11.90
2015,02,08,14,29,11.90
2015,02,08,14,30,11.90
2015,02,08,14,31,11.80
2015,02,08,14,32,11.80
2015,02,08,14,33,11.80
2015,02,08,14,34,11.80
2015,02,08,14,35,11.80
2015,02,08,14,36,11.80
2015,02,08,14,37,11.80
2015,02,08,14,38,11.80
2015,02,08,14,39,11.80
2015,02,08,14,40,11.90
2015,02,08,14,41,11.90
2015,02,08,14,42,11.90
2015,02,08,14,43,11.90
2015,02,08,14,44,11.90
2015,02,08,14,45,11.90
2015,02,08,14,46,11.90
2015,02,08,14,47,12.00
2015,02,08,14,48,12.00
2015,02,08,14,49,12.00
2015,02,08,14,50,12.10
2015,02,08,14,51,12.10
2015,02,08,14,52,12.10
2015,02,08,14,53,12.10
2015,02,08,14,54,12.10
2015,02,08,14,55,12.10
2015,02,08,14,56,12.10
2015,02,08,14,57,12.10
2015,02,08,14,58,12.10
2015,02,08,14,59,12.10
2015,02,08,15,00,12.10
2015,02,08,15,01,12.10
2015,02,08,15,02,12.10
2015,02,08,15,03,12.10
2015,02,08,15,04,12.10
2015,02,08,15,05,12.10
2015,02,08,15,06,12.10
2015,02,08,15,07,12.10
2015,02,08,15,08,12.10
2015,02,08,15,09,12.10
2015,02,08,15,10,12.10
2015,02,08,15,11,12.10
2015,02,08,15,12,12.10
2015,02,08,15,13,12.10
2015,02,08,15,14,12.10
2015,02,08,15,15,12.10
2015,02,08,15,16,12.10
2015,02,08,15,17,12.00
2015,02,08,15,18,12.00
2015,02,08,15,19,12.00
2015,02,08,15,20,12.10
2015,02,08,15,21,12.10
2015,02,08,15,22,12.10
2015,02,08,15,23,12.10
2015,02,08,15,24,12.10
2015,02,08,15,25,12.10
2015,02,08,15,26,12.10
2015,02,08,15,27,12.20
2015,02,08,15,28,12.20
2015,02,08,15,29,12.20
2015,02,08,15,30,12.20
2015,02,08,15,31,12.20
2015,02,08,15,32,12.20
2015,02,08,15,33,12.20
2015,02,08,15,34,12.20
2015,02,08,15,35,12.20
2015,02,08,15,36,12.20
2015,02,08,15,37,12.20
2015,02,08,15,38,12.20
2015,02,08,15,39,12.20
2015,02,08,15,40,12.20
2015,02,08,15,41,12.20
2015,02,08,15,42,12.20
2015,02,08,15,43,12.10
2015,02,08,15,44,12.10
2015,02,08,15,45,12.10
2015,02,08,15,46,12.00
2015,02,08,15,47,12.00
2015,02,08,15,48,11.90
2015,02,08,15,49,11.90
2015,02,08,15,50,11.90
2015,02,08,15,51,11.80
2015,02,08,15,52,11.80
2015,02,08,15,53,11.80
2015,02,08,15,54,11.80
2015,02,08,15,55,11.80
2015,02,08,15,56,11.70
2015,02,08,15,57,11.70
2015,02,08,15,58,11.70
2015,02,08,15,59,11.70
2015,02,08,16,00,11.70
2015,02,08,16,01,11.60
2015,02,08,16,02,11.60
2015,02,08,16,03,11.60
2015,02,08,16,04,11.60
2015,02,08,16,05,11.60
2015,02,08,16,06,11.60
2015,02,08,16,07,11.60
2015,02,08,16,08,11.60
2015,02,08,16,09,11.60
2015,02,08,16,10,11.60
2015,02,08,16,11,11.60
2015,02,08,16,12,11.60
2015,02,08,16,13,11.60
2015,02,08,16,14,11.60
2015,02,08,16,15,11.60
2015,02,08,16,16,11.60
2015,02,08,16,17,11.60
2015,02,08,16,18,11.60
2015,02,08,16,19,11.60
2015,02,08,16,20,11.60
2015,02,08,16,21,11.60
2015,02,08,16,22,11.60
2015,02,08,16,23,11.50
2015,02,08,16,24,11.50
2015,02,08,16,25,11.50
2015,02,08,16,26,11.50
2015,02,08,16,27,11.50
2015,02,08,16,28,11.50
2015,02,08,16,29,11.50
2015,02,08,16,30,11.50
2015,02,08,16,31,11.50
2015,02,08,16,32,11.40
2015,02,08,16,33,11.40
2015,02,08,16,34,11.40
2015,02,08,16,35,11.40
2015,02,08,16,36,11.40
2015,02,08,16,37,11.40
2015,02,08,16,38,11.40
2015,02,08,16,39,11.40
2015,02,08,16,40,11.40
2015,02,08,16,41,11.40
2015,02,08,16,42,11.40
2015,02,08,16,43,11.40
2015,02,08,16,44,11.40
2015,02,08,16,45,11.40
2015,02,08,16,46,11.40
2015,02,08,16,47,11.40
2015,02,08,16,48,11.40
2015,02,08,16,49,11.40
2015,02,08,16,50,11.40
2015,02,08,16,51,11.40
2015,02,08,16,52,11.40
2015,02,08,16,53,11.40
2015,02,08,16,54,11.40
2015,02,08,16,55,11.40
2015,02,08,16,56,11.40
2015,02,08,16,57,11.40
2015,02,08,16,58,11.40
2015,02,08,16,59,11.40
2015,02,08,17,00,11.40
2015,02,08,17,01,11.40
2015,02,08,17,02,11.40
2015,02,08,17,03,11.40
2015,02,08,17,04,11.40
2015,02,08,17,05,11.40
2015,02,08,17,06,11.40
2015,02,08,17,07,11.40
2015,02,08,17,08,11.30
2015,02,08,17,09,11.30
2015,02,08,17,10,11.30
2015,02,08,17,11,11.30
2015,02,08,17,12,11.30
2015,02,08,17,13,11.30
2015,02,08,17,14,11.30
2015,02,08,17,15,11.30
2015,02,08,17,16,11.30
2015,02,08,17,17,11.30
2015,02,08,17,18,11.30
2015,02,08,17,19,11.30
2015,02,08,17,20,11.30
2015,02,08,17,21,11.30
2015,02,08,17,22,11.30
2015,02,08,17,23,11.30
2015,02,08,17,24,11.30
2015,02,08,17,25,11.30
2015,02,08,17,26,11.30
2015,02,08,17,27,11.30
2015,02,08,17,28,11.30
2015,02,08,17,29,11.30
2015,02,08,17,30,11.30
2015,02,08,17,31,11.30
2015,02,08,17,32,11.30
2015,02,08,17,33,11.30
2015,02,08,17,34,11.30
2015,02,08,17,35,11.30
2015,02,08,17,36,11.30
2015,02,08,17,37,11.30
2015,02,08,17,38,11.30
2015,02,08,17,39,11.30
2015,02,08,17,40,11.30
2015,02,08,17,41,11.30
2015,02,08,17,42,11.30
2015,02,08,17,43,11.30
2015,02,08,17,44,11.30
2015,02,08,17,45,11.30
2015,02,08,17,46,11.30
2015,02,08,17,47,11.30